Regional Weather Roundup
Issued by NWS Mobile, AL

Home | Current Version | Previous Version | Text Only | Print | Product List | Glossary On
Versions: 1 2 3 4 5 6 7 8 9 10 11 12 13 14 15 16 17 18 19 20 21 22 23 24 25 26 27 28 29 30 31 32 33 34 35 36 37 38 39 40 41 42 43 44 45 46 47 48 49 50
000
ASUS44 KMOB 250210
RWRMOB
REGIONAL WEATHER ROUNDUP
NATIONAL WEATHER SERVICE MOBILE AL
800 PM CST WED DEC 24 2014

NOTE: "FAIR" INDICATES FEW OR NO CLOUDS BELOW 12,000 FEET WITH NO
      SIGNIFICANT WEATHER AND/OR OBSTRUCTIONS TO VISIBILITY.

  * THESE STATIONS ARE PART OF THE UNIVERSITY OF SOUTH ALABAMA
    MESONET AND ARE NOT UNDER NWS OR FAA QUALITY CONTROL.

ALZ061>064-250300-
COASTAL ALABAMA

CITY           SKY/WX    TMP DP  RH WIND       PRES   REMARKS
MOBILE REG APT MOCLDY    48  37  65 NW13G26   30.03R
BROOKLEY FIELD CLOUDY    52  40  63 W14       30.03R
USA CAMPUS*      N/A     50  43  76 NW3       30.03R
DOG RIVER*     NOT AVBL


CITY           SKY/WX    TMP DP  RH WIND       PRES   REMARKS
MOUNT VERNON*    N/A     50  41  71 W7        30.03R
SARALAND*      NOT AVBL
BAY MINETTE*   NOT AVBL
LOXLEY*          N/A     52  41  66 W12       30.01R
ROBERTSDALE*     N/A     52  41  66 NW5       30.01R
FAIRHOPE*        N/A     52  41  66 NW9       30.02R
ELBERTA*         N/A     52  41  66 W6        30.00R
FOLEY*           N/A     50  48  93 CALM      29.95R
GRAND BAY*       N/A     50  39  66 NW8       30.02R
DAUPHIN ISLND* NOT AVBL
BON SCOUR NWR* NOT AVBL
GULF SHORES    CLOUDY    53  40  61 W7        30.01R

$$

ALZ051>060-250300-
INTERIOR SOUTHWEST AND SOUTH CENTRAL ALABAMA

CITY           SKY/WX    TMP DP  RH WIND       PRES   REMARKS
GREENVILLE     CLOUDY    50  44  80 W6        29.95R
EVERGREEN      CLOUDY    52  43  71 CALM      29.98R
CASTLEBERRY*   NOT AVBL
ATMORE*          N/A     50  45  81 W7        30.01R
DIXIE*           N/A     50  48  93 CALM      29.95R
ANDALUSIA/OPP  CLOUDY    54  47  77 NW5       29.96R
ANDALUSIA*       N/A     50  48  93 W5        29.97R
FLORALA APT    CLOUDY    51  48  89 VRB3      29.98R
FLORALA*         N/A     50  48  93 CALM      29.95R

$$

FLZ001>006-250300-
WESTERN FLORIDA PANHANDLE

CITY           SKY/WX    TMP DP  RH WIND       PRES   REMARKS
PENSACOLA      CLOUDY    53  43  68 W14       29.99R
NAS PENSACOLA  CLOUDY    54  42  64 W7        29.99R
MILTON         CLOUDY    51  45  79 W8        29.99R
WHTNG S FIELD  CLOUDY    53  47  79 W3        29.99R


CITY           SKY/WX    TMP DP  RH WIND       PRES   REMARKS
WALNUT HILL*   NOT AVBL
JAY*           NOT AVBL
DUKE FIELD     CLOUDY    52  48  86 SW6       29.99R
CRESTVIEW      CLOUDY    52  49  89 CALM      29.99R
VALPARAISO     CLOUDY    53  48  83 W7        29.99R
DESTIN         CLOUDY    57  47  69 VRB6      29.99R

$$

MSZ076-079-250300-
INTERIOR SOUTHEAST MISSISSIPPI

CITY           SKY/WX    TMP DP  RH WIND       PRES   REMARKS
LEAKESVILLE*   NOT AVBL
AGRICOLA*      NOT AVBL

$$

MARINE OBSERVATIONS

STATION/POSITION TIME  TEMP    WIND        PRES    WAVE
                       AIR SEA DIR/SP/G            HT/PER
                 (UTC) (F)     (DEG/KT/KT) (MB)    (FT/S)
PASCAGOULA       0200   49     320/ 14/ 18 1016.7R
PETIT BOIS ISLND 0200   53     320/ 21/ 26 1016.8R
GRAND BAY        0100   53     290/  8     1016.0R
KATRINA CUT      0122   55     290/ 19     1016.6
CEDAR POINT      0100   53     290/ 17     1015.9R
E DAUPHIN ISLAND 0200   54     280/ 17/ 22 1016.2R
MIDDLE BAY LIGHT 0100   54     300/ 15     1014.9R
USCG MOBILE BAY  0200   52 60  290/  6/  9 1015.6R
STATE DOCKS      0200                      1016.2R
MEAHER PARK      0100   54     280/ 11     1015.9R
WEEKS BAY        0100   54                   N/A
FORT MORGAN      0200   54     310/ 20/ 23 1015.3R
12 S ORANGE BCH  0200   58 69  270/ 19/ 23 1014.8R   6/ 9
PENSACOLA BAY    0200   56 62  300/  8/ 12 1015.9R
64 S DAUPHIN ISL 0200   57 71  280/ 19/ 27 1016.0R   6/ 9
67 S FORT MORGAN 0100   56     280/ 23     1016.6R

$$

SELECTED LOCATIONS ACROSS THE REGION

CITY           SKY/WX    TMP DP  RH WIND       PRES   REMARKS
NEW ORLEANS    MOCLDY    49  32  52 NW14G23   30.08R
GULFPORT       MOCLDY    47  34  60 NW9       30.05R
PASCAGOULA AP  PTCLDY    48  36  63 NW10G21   30.04R
PASCAGOULA*      N/A     48  34  57 NW10      30.04R
HATTIESBURG    MOCLDY    45  35  68 NW5       30.05R
LAUREL         CLEAR     41  34  75 CALM      30.04R
MERIDIAN       CLOUDY    44  35  70 W6        30.02R
JACKSON        MOCLDY    42  35  76 CALM      30.03R
MONTGOMERY     CLOUDY    52  43  71 W10       29.96R
TROY           CLOUDY    50  47  89 SW5       29.96R
KINSTON*       NOT AVBL
GENEVA*          N/A     52  46  82 CALM      30.00R
ASHFORD*         N/A     50  48  93 W5        29.97R
DOTHAN         CLOUDY    52  47  83 W7        29.97R
PANAMA CITY    CLOUDY    54  47  77 W5        29.97R

$$



USA.gov is the U.S. government's official web portal to all federal, state and local government web resources and services.